Orbital Elements at Epoch 2459000.5 (2020-May-31.0) TDB
Reference: JPL 31 (heliocentric ecliptic J2000)
Element | Value | Uncertainty (1-sigma) | Units |
e | .1211239224423247 | 3.3899e-08 | |
a | 3.132006894845243 | 1.591e-08 | au |
q | 2.752645934625181 | 1.0253e-07 | au |
i | .2893854640529933 | 3.4782e-06 | deg |
node | 314.1885816872451 | 0.0007426 | deg |
peri | 290.976049607786 | 0.00074277 | deg |
M | 111.4986202893847 | 1.6745e-05 | deg |
tp | 2458373.453881818802 (2018-Sep-11.95388182) | 9.314e-05 | TDB |
period | 2024.568572771142 5.54 | 1.5427e-05 4.224e-08 | d yr |
n | .177815661490412 | 1.3549e-09 | deg/d |
Q | 3.511367855065304 | 1.7837e-08 | au |
|
| | Orbit Determination Parameters
Additional Information
|